iso_date,epoch_date,Year,Hour,Min,DOY,POS_DOY,Lat,Lon,BP,Ts,Ta,has_bp,has_ts,has_ta,BuoyID,Buoy_Type,Buoy_Owner,Logistics,Hemisphere
2017-03-28T15:01:26Z,1490713286,2017,15,2,87.626,87.626,-70.67061,-8.27373,982.2,-999.00,-999.0,yes,no,no,300025060001860,IMB,AWI-USIABP,unknown,South
2017-04-06T12:01:26Z,1491480086,2017,12,2,96.501,96.501,-70.67067,-8.27354,967.3,-999.00,-999.0,yes,no,no,300025060001860,IMB,AWI-USIABP,unknown,South
2017-04-06T15:01:26Z,1491490886,2017,15,1,96.626,96.626,-70.67067,-8.27324,962.5,-999.00,-999.0,yes,no,no,300025060001860,IMB,AWI-USIABP,unknown,South
2017-04-06T16:00:28Z,1491494429,2017,16,1,96.667,96.667,-70.67079,-8.27348,966.1,-999.00,-999.0,yes,no,no,300025060001860,IMB,AWI-USIABP,unknown,South
2017-04-06T16:59:31Z,1491497971,2017,17,0,96.708,96.708,-70.67039,-8.27314,967.9,-999.00,-999.0,yes,no,no,300025060001860,IMB,AWI-USIABP,unknown,South
2017-04-06T18:00:00Z,1491501600,2017,18,0,96.75,96.75,-70.67079,-8.27314,968.4,-999.00,-999.0,yes,no,no,300025060001860,IMB,AWI-USIABP,unknown,South
2017-04-06T19:00:28Z,1491505229,2017,19,0,96.792,96.792,-70.6707,-8.27323,968.5,-999.00,-999.0,yes,no,no,300025060001860,IMB,AWI-USIABP,unknown,South
2017-04-06T19:59:31Z,1491508771,2017,20,0,96.833,96.833,-70.67077,-8.2731,968.4,-999.00,-999.0,yes,no,no,300025060001860,IMB,AWI-USIABP,unknown,South
2017-04-06T21:00:00Z,1491512400,2017,21,0,96.875,96.875,-70.6707,-8.27334,968.1,-999.00,-999.0,yes,no,no,300025060001860,IMB,AWI-USIABP,unknown,South
2017-04-06T22:00:28Z,1491516029,2017,22,0,96.917,96.917,-70.67071,-8.27329,967.5,-999.00,-999.0,yes,no,no,300025060001860,IMB,AWI-USIABP,unknown,South
2017-04-06T22:59:31Z,1491519571,2017,23,0,96.958,96.958,-70.67084,-8.27317,967.9,-999.00,-999.0,yes,no,no,300025060001860,IMB,AWI-USIABP,unknown,South
2017-04-07T00:00:00Z,1491523200,2017,0,0,97.0,97.0,-70.67092,-8.27345,968.3,-999.00,-999.0,yes,no,no,300025060001860,IMB,AWI-USIABP,unknown,South
2017-04-07T01:00:28Z,1491526829,2017,1,0,97.042,97.042,-70.67055,-8.27291,968.3,-999.00,-999.0,yes,no,no,300025060001860,IMB,AWI-USIABP,unknown,South
2017-04-07T01:59:31Z,1491530371,2017,2,0,97.083,97.083,-70.67071,-8.27318,967.7,-999.00,-999.0,yes,no,no,300025060001860,IMB,AWI-USIABP,unknown,South
2017-04-07T03:00:00Z,1491534000,2017,3,0,97.125,97.125,-70.6708,-8.2733,967.8,-999.00,-999.0,yes,no,no,300025060001860,IMB,AWI-USIABP,unknown,South
2017-04-07T04:00:28Z,1491537629,2017,4,0,97.167,97.167,-70.67033,-8.27301,967.7,-999.00,-999.0,yes,no,no,300025060001860,IMB,AWI-USIABP,unknown,South
2017-04-07T04:59:31Z,1491541171,2017,5,0,97.208,97.208,-70.67082,-8.27303,967.8,-999.00,-999.0,yes,no,no,300025060001860,IMB,AWI-USIABP,unknown,South
2017-04-07T06:00:00Z,1491544800,2017,6,0,97.25,97.25,-70.66937,-8.27513,968.2,-999.00,-999.0,yes,no,no,300025060001860,IMB,AWI-USIABP,unknown,South
2017-04-07T07:00:28Z,1491548429,2017,7,0,97.292,97.292,-70.67073,-8.27325,968.5,-999.00,-999.0,yes,no,no,300025060001860,IMB,AWI-USIABP,unknown,South
2017-04-07T07:59:31Z,1491551971,2017,8,0,97.333,97.333,-70.67063,-8.27305,968.7,-999.00,-999.0,yes,no,no,300025060001860,IMB,AWI-USIABP,unknown,South
2017-04-07T09:00:00Z,1491555600,2017,9,0,97.375,97.375,-70.67075,-8.27321,968.6,-999.00,-999.0,yes,no,no,300025060001860,IMB,AWI-USIABP,unknown,South
2017-04-07T10:00:28Z,1491559229,2017,10,0,97.417,97.417,-70.67072,-8.2733,968.5,-999.00,-999.0,yes,no,no,300025060001860,IMB,AWI-USIABP,unknown,South
2017-04-07T10:59:31Z,1491562771,2017,11,0,97.458,97.458,-70.67079,-8.2731,968.5,-999.00,-999.0,yes,no,no,300025060001860,IMB,AWI-USIABP,unknown,South
2017-04-07T12:00:00Z,1491566400,2017,12,0,97.5,97.5,-70.67084,-8.27323,968.7,-999.00,-999.0,yes,no,no,300025060001860,IMB,AWI-USIABP,unknown,South
2017-06-03T11:26:52Z,1496489213,2017,11,27,154.477,154.477,-70.58241,-7.94445,987.2,-999.00,-999.0,yes,no,no,300025060001860,IMB,AWI-USIABP,unknown,South
2017-06-06T16:01:55Z,1496764915,2017,16,2,157.668,157.668,-70.58241,-7.94444,1003.0,-999.00,-999.0,yes,no,no,300025060001860,IMB,AWI-USIABP,unknown,South
2017-06-06T17:02:24Z,1496768544,2017,17,2,157.71,157.71,-70.58218,-7.94338,1002.8,-999.00,-999.0,yes,no,no,300025060001860,IMB,AWI-USIABP,unknown,South
2017-06-06T18:00:00Z,1496772000,2017,18,0,157.75,157.75,-70.58243,-7.94448,1004.5,-999.00,-999.0,yes,no,no,300025060001860,IMB,AWI-USIABP,unknown,South
2017-06-06T19:00:28Z,1496775629,2017,19,0,157.792,157.792,-70.58243,-7.9444,1006.5,-999.00,-999.0,yes,no,no,300025060001860,IMB,AWI-USIABP,unknown,South
2017-06-06T19:59:31Z,1496779171,2017,20,0,157.833,157.833,-70.58241,-7.9444,1007.4,-999.00,-999.0,yes,no,no,300025060001860,IMB,AWI-USIABP,unknown,South
2017-06-06T21:00:00Z,1496782800,2017,21,0,157.875,157.875,-70.58239,-7.94457,1009.4,-999.00,-999.0,yes,no,no,300025060001860,IMB,AWI-USIABP,unknown,South
2017-06-06T22:00:28Z,1496786429,2017,22,0,157.917,157.917,-70.58242,-7.94445,1010.7,-999.00,-999.0,yes,no,no,300025060001860,IMB,AWI-USIABP,unknown,South
2017-06-06T22:43:40Z,1496789021,2017,22,44,157.947,157.947,-70.58242,-7.9444,1011.9,-999.00,-999.0,yes,no,no,300025060001860,IMB,AWI-USIABP,unknown,South
2017-06-06T23:00:57Z,1496790058,2017,23,1,157.959,157.959,-70.58242,-7.94443,1012.2,-999.00,-999.0,yes,no,no,300025060001860,IMB,AWI-USIABP,unknown,South
2017-06-07T00:00:00Z,1496793600,2017,0,0,158.0,158.0,-70.58243,-7.94444,1013.0,-999.00,-999.0,yes,no,no,300025060001860,IMB,AWI-USIABP,unknown,South
2017-06-07T01:00:28Z,1496797229,2017,1,0,158.042,158.042,-70.58242,-7.94444,1015.0,-999.00,-999.0,yes,no,no,300025060001860,IMB,AWI-USIABP,unknown,South
2017-06-07T01:59:31Z,1496800771,2017,2,0,158.083,158.083,-70.58242,-7.94444,1016.0,-999.00,-999.0,yes,no,no,300025060001860,IMB,AWI-USIABP,unknown,South
2017-06-07T03:00:00Z,1496804400,2017,3,0,158.125,158.125,-70.58245,-7.94432,1014.1,-999.00,-999.0,yes,no,no,300025060001860,IMB,AWI-USIABP,unknown,South
2017-06-07T04:00:28Z,1496808029,2017,4,0,158.167,158.167,-70.58242,-7.94442,1014.2,-999.00,-999.0,yes,no,no,300025060001860,IMB,AWI-USIABP,unknown,South
2017-06-07T04:59:31Z,1496811571,2017,5,0,158.208,158.208,-70.58242,-7.94446,1016.2,-999.00,-999.0,yes,no,no,300025060001860,IMB,AWI-USIABP,unknown,South
2017-06-07T06:00:00Z,1496815200,2017,6,0,158.25,158.25,-70.58246,-7.94446,1017.8,-999.00,-999.0,yes,no,no,300025060001860,IMB,AWI-USIABP,unknown,South
2017-06-07T07:00:28Z,1496818829,2017,7,0,158.292,158.292,-70.58243,-7.94444,1017.9,-999.00,-999.0,yes,no,no,300025060001860,IMB,AWI-USIABP,unknown,South
2017-06-07T07:59:31Z,1496822371,2017,8,0,158.333,158.333,-70.58239,-7.94435,1017.9,-999.00,-999.0,yes,no,no,300025060001860,IMB,AWI-USIABP,unknown,South
2017-06-07T08:45:36Z,1496825136,2017,8,46,158.365,158.365,-70.58207,-7.944,1018.0,-999.00,-999.0,yes,no,no,300025060001860,IMB,AWI-USIABP,unknown,South
2017-06-07T09:01:26Z,1496826086,2017,9,1,158.376,158.376,-70.58247,-7.94465,1017.9,-999.00,-999.0,yes,no,no,300025060001860,IMB,AWI-USIABP,unknown,South
2017-06-07T10:00:28Z,1496829629,2017,10,0,158.417,158.417,-70.5824,-7.94442,1017.8,-999.00,-999.0,yes,no,no,300025060001860,IMB,AWI-USIABP,unknown,South
2017-06-07T10:59:31Z,1496833171,2017,11,0,158.458,158.458,-70.58243,-7.94449,1017.6,-999.00,-999.0,yes,no,no,300025060001860,IMB,AWI-USIABP,unknown,South
2017-06-07T12:00:00Z,1496836800,2017,12,0,158.5,158.5,-70.58243,-7.94452,1016.9,-999.00,-999.0,yes,no,no,300025060001860,IMB,AWI-USIABP,unknown,South
2017-06-07T13:00:28Z,1496840429,2017,13,0,158.542,158.542,-70.58242,-7.94449,1016.3,-999.00,-999.0,yes,no,no,300025060001860,IMB,AWI-USIABP,unknown,South
2017-06-07T13:59:31Z,1496843971,2017,14,0,158.583,158.583,-70.58244,-7.94446,1016.5,-999.00,-999.0,yes,no,no,300025060001860,IMB,AWI-USIABP,unknown,South
2017-06-07T15:00:00Z,1496847600,2017,15,0,158.625,158.625,-70.58242,-7.94443,1016.3,-999.00,-999.0,yes,no,no,300025060001860,IMB,AWI-USIABP,unknown,South
2017-06-07T16:00:28Z,1496851229,2017,16,0,158.667,158.667,-70.58243,-7.9444,1016.0,-999.00,-999.0,yes,no,no,300025060001860,IMB,AWI-USIABP,unknown,South
2017-06-07T16:59:31Z,1496854771,2017,17,0,158.708,158.708,-70.58245,-7.94448,1014.8,-999.00,-999.0,yes,no,no,300025060001860,IMB,AWI-USIABP,unknown,South
2017-06-07T18:00:00Z,1496858400,2017,18,0,158.75,158.75,-70.58243,-7.94444,1011.7,-999.00,-999.0,yes,no,no,300025060001860,IMB,AWI-USIABP,unknown,South
2017-06-07T19:00:28Z,1496862029,2017,19,0,158.792,158.792,-70.58245,-7.94436,1009.9,-999.00,-999.0,yes,no,no,300025060001860,IMB,AWI-USIABP,unknown,South
2017-06-07T19:59:31Z,1496865571,2017,20,0,158.833,158.833,-70.58244,-7.94444,1009.2,-999.00,-999.0,yes,no,no,300025060001860,IMB,AWI-USIABP,unknown,South
2017-06-07T21:00:00Z,1496869200,2017,21,0,158.875,158.875,-70.5824,-7.9448,1008.7,-999.00,-999.0,yes,no,no,300025060001860,IMB,AWI-USIABP,unknown,South
2017-06-07T22:00:28Z,1496872829,2017,22,0,158.917,158.917,-70.58246,-7.94437,1008.3,-999.00,-999.0,yes,no,no,300025060001860,IMB,AWI-USIABP,unknown,South
2017-06-07T22:59:31Z,1496876371,2017,23,0,158.958,158.958,-70.58236,-7.94442,1007.6,-999.00,-999.0,yes,no,no,300025060001860,IMB,AWI-USIABP,unknown,South
2017-06-08T00:00:00Z,1496880000,2017,0,0,159.0,159.0,-70.58241,-7.94445,1007.5,-999.00,-999.0,yes,no,no,300025060001860,IMB,AWI-USIABP,unknown,South
2017-06-08T01:00:28Z,1496883629,2017,1,0,159.042,159.042,-70.58242,-7.94445,1007.0,-999.00,-999.0,yes,no,no,300025060001860,IMB,AWI-USIABP,unknown,South
2017-06-08T01:59:31Z,1496887171,2017,2,0,159.083,159.083,-70.58244,-7.94448,1006.4,-999.00,-999.0,yes,no,no,300025060001860,IMB,AWI-USIABP,unknown,South
2017-06-08T03:00:00Z,1496890800,2017,3,0,159.125,159.125,-70.58242,-7.94448,1005.8,-999.00,-999.0,yes,no,no,300025060001860,IMB,AWI-USIABP,unknown,South
2017-06-08T04:00:28Z,1496894429,2017,4,0,159.167,159.167,-70.58245,-7.94444,1005.4,-999.00,-999.0,yes,no,no,300025060001860,IMB,AWI-USIABP,unknown,South
2017-06-08T04:59:31Z,1496897971,2017,5,0,159.208,159.208,-70.58245,-7.94447,1004.7,-999.00,-999.0,yes,no,no,300025060001860,IMB,AWI-USIABP,unknown,South
2017-06-08T06:00:00Z,1496901600,2017,6,0,159.25,159.25,-70.58245,-7.94443,1004.4,-999.00,-999.0,yes,no,no,300025060001860,IMB,AWI-USIABP,unknown,South
2017-06-08T07:00:28Z,1496905229,2017,7,0,159.292,159.292,-70.58245,-7.94444,1003.9,-999.00,-999.0,yes,no,no,300025060001860,IMB,AWI-USIABP,unknown,South
2017-06-08T07:59:31Z,1496908771,2017,8,0,159.333,159.333,-70.58242,-7.94442,1003.3,-999.00,-999.0,yes,no,no,300025060001860,IMB,AWI-USIABP,unknown,South
2017-06-08T09:00:00Z,1496912400,2017,9,0,159.375,159.375,-70.58246,-7.9446,1002.8,-999.00,-999.0,yes,no,no,300025060001860,IMB,AWI-USIABP,unknown,South
2017-06-08T10:00:28Z,1496916029,2017,10,0,159.417,159.417,-70.58242,-7.94444,1002.3,-999.00,-999.0,yes,no,no,300025060001860,IMB,AWI-USIABP,unknown,South
2017-06-08T10:59:31Z,1496919571,2017,11,0,159.458,159.458,-70.5824,-7.94448,1001.9,-999.00,-999.0,yes,no,no,300025060001860,IMB,AWI-USIABP,unknown,South
2017-06-08T12:00:00Z,1496923200,2017,12,0,159.5,159.5,-70.58243,-7.94448,1001.6,-999.00,-999.0,yes,no,no,300025060001860,IMB,AWI-USIABP,unknown,South
2017-06-08T13:00:28Z,1496926829,2017,13,0,159.542,159.542,-70.58243,-7.94448,1001.0,-999.00,-999.0,yes,no,no,300025060001860,IMB,AWI-USIABP,unknown,South
2017-06-08T13:59:31Z,1496930371,2017,14,0,159.583,159.583,-70.58244,-7.94445,1000.4,-999.00,-999.0,yes,no,no,300025060001860,IMB,AWI-USIABP,unknown,South
2017-06-08T15:00:00Z,1496934000,2017,15,0,159.625,159.625,-70.58243,-7.94443,1000.1,-999.00,-999.0,yes,no,no,300025060001860,IMB,AWI-USIABP,unknown,South
2017-06-08T16:00:28Z,1496937629,2017,16,0,159.667,159.667,-70.58215,-7.94352,999.8,-999.00,-999.0,yes,no,no,300025060001860,IMB,AWI-USIABP,unknown,South
2017-06-08T16:59:31Z,1496941171,2017,17,0,159.708,159.708,-70.58245,-7.94441,999.6,-999.00,-999.0,yes,no,no,300025060001860,IMB,AWI-USIABP,unknown,South
2017-06-08T18:00:00Z,1496944800,2017,18,0,159.75,159.75,-70.58243,-7.94448,999.4,-999.00,-999.0,yes,no,no,300025060001860,IMB,AWI-USIABP,unknown,South
2017-06-08T19:00:28Z,1496948429,2017,19,0,159.792,159.792,-70.58241,-7.94445,999.2,-999.00,-999.0,yes,no,no,300025060001860,IMB,AWI-USIABP,unknown,South
2017-06-08T19:59:31Z,1496951971,2017,20,0,159.833,159.833,-70.5824,-7.94436,999.1,-999.00,-999.0,yes,no,no,300025060001860,IMB,AWI-USIABP,unknown,South
2017-06-08T21:00:00Z,1496955600,2017,21,0,159.875,159.875,-70.5824,-7.94449,998.8,-999.00,-999.0,yes,no,no,300025060001860,IMB,AWI-USIABP,unknown,South
2017-06-08T22:00:28Z,1496959229,2017,22,0,159.917,159.917,-70.58242,-7.94443,999.1,-999.00,-999.0,yes,no,no,300025060001860,IMB,AWI-USIABP,unknown,South
2017-06-08T22:59:31Z,1496962771,2017,23,0,159.958,159.958,-70.58242,-7.94445,998.9,-999.00,-999.0,yes,no,no,300025060001860,IMB,AWI-USIABP,unknown,South
2017-06-09T00:00:00Z,1496966400,2017,0,0,160.0,160.0,-70.58243,-7.94442,998.6,-999.00,-999.0,yes,no,no,300025060001860,IMB,AWI-USIABP,unknown,South
2017-06-09T01:00:28Z,1496970029,2017,1,0,160.042,160.042,-70.58242,-7.94439,999.0,-999.00,-999.0,yes,no,no,300025060001860,IMB,AWI-USIABP,unknown,South
2017-06-09T01:59:31Z,1496973571,2017,2,0,160.083,160.083,-70.58318,-7.9447,998.9,-999.00,-999.0,yes,no,no,300025060001860,IMB,AWI-USIABP,unknown,South
2017-06-09T03:00:00Z,1496977200,2017,3,0,160.125,160.125,-70.58232,-7.94433,999.2,-999.00,-999.0,yes,no,no,300025060001860,IMB,AWI-USIABP,unknown,South
2017-06-09T04:00:28Z,1496980829,2017,4,0,160.167,160.167,-70.58244,-7.94446,999.2,-999.00,-999.0,yes,no,no,300025060001860,IMB,AWI-USIABP,unknown,South
2017-06-09T04:59:31Z,1496984371,2017,5,0,160.208,160.208,-70.58244,-7.94444,999.7,-999.00,-999.0,yes,no,no,300025060001860,IMB,AWI-USIABP,unknown,South
2017-06-09T06:00:00Z,1496988000,2017,6,0,160.25,160.25,-70.58245,-7.94403,999.9,-999.00,-999.0,yes,no,no,300025060001860,IMB,AWI-USIABP,unknown,South
2017-06-09T07:00:28Z,1496991629,2017,7,0,160.292,160.292,-70.58242,-7.94442,1000.7,-999.00,-999.0,yes,no,no,300025060001860,IMB,AWI-USIABP,unknown,South
2017-06-09T07:59:31Z,1496995171,2017,8,0,160.333,160.333,-70.58243,-7.94442,1000.8,-999.00,-999.0,yes,no,no,300025060001860,IMB,AWI-USIABP,unknown,South
2017-06-09T09:00:00Z,1496998800,2017,9,0,160.375,160.375,-70.58245,-7.94444,1001.3,-999.00,-999.0,yes,no,no,300025060001860,IMB,AWI-USIABP,unknown,South
2017-06-09T10:00:28Z,1497002429,2017,10,0,160.417,160.417,-70.58242,-7.94444,1001.7,-999.00,-999.0,yes,no,no,300025060001860,IMB,AWI-USIABP,unknown,South
2017-06-09T10:59:31Z,1497005971,2017,11,0,160.458,160.458,-70.58243,-7.94446,1002.0,-999.00,-999.0,yes,no,no,300025060001860,IMB,AWI-USIABP,unknown,South
2017-06-09T12:00:00Z,1497009600,2017,12,0,160.5,160.5,-70.58252,-7.94452,1002.5,-999.00,-999.0,yes,no,no,300025060001860,IMB,AWI-USIABP,unknown,South
2017-06-09T13:00:28Z,1497013229,2017,13,0,160.542,160.542,-70.58243,-7.94446,1003.1,-999.00,-999.0,yes,no,no,300025060001860,IMB,AWI-USIABP,unknown,South
2017-06-09T13:59:31Z,1497016771,2017,14,0,160.583,160.583,-70.58238,-7.94462,1003.7,-999.00,-999.0,yes,no,no,300025060001860,IMB,AWI-USIABP,unknown,South
2017-06-09T15:00:00Z,1497020400,2017,15,0,160.625,160.625,-70.58272,-7.94327,1003.8,-999.00,-999.0,yes,no,no,300025060001860,IMB,AWI-USIABP,unknown,South
2017-06-09T16:00:28Z,1497024029,2017,16,0,160.667,160.667,-70.58243,-7.94447,1004.2,-999.00,-999.0,yes,no,no,300025060001860,IMB,AWI-USIABP,unknown,South
2017-06-09T16:59:31Z,1497027571,2017,17,0,160.708,160.708,-70.58242,-7.94446,1004.5,-999.00,-999.0,yes,no,no,300025060001860,IMB,AWI-USIABP,unknown,South
2017-06-09T18:00:00Z,1497031200,2017,18,0,160.75,160.75,-70.58242,-7.94442,1004.9,-999.00,-999.0,yes,no,no,300025060001860,IMB,AWI-USIABP,unknown,South
2017-06-09T19:00:28Z,1497034829,2017,19,0,160.792,160.792,-70.58242,-7.94443,1005.2,-999.00,-999.0,yes,no,no,300025060001860,IMB,AWI-USIABP,unknown,South
2017-06-09T19:59:31Z,1497038371,2017,20,0,160.833,160.833,-70.5823,-7.94446,1005.6,-999.00,-999.0,yes,no,no,300025060001860,IMB,AWI-USIABP,unknown,South
2017-06-09T21:00:00Z,1497042000,2017,21,0,160.875,160.875,-70.58241,-7.94445,1005.8,-999.00,-999.0,yes,no,no,300025060001860,IMB,AWI-USIABP,unknown,South
2017-06-09T22:00:28Z,1497045629,2017,22,0,160.917,160.917,-70.58256,-7.94361,1006.2,-999.00,-999.0,yes,no,no,300025060001860,IMB,AWI-USIABP,unknown,South
2017-06-09T22:59:31Z,1497049171,2017,23,0,160.958,160.958,-70.58263,-7.94472,1006.3,-999.00,-999.0,yes,no,no,300025060001860,IMB,AWI-USIABP,unknown,South
2017-06-10T00:00:00Z,1497052800,2017,0,0,161.0,161.0,-70.58245,-7.94433,1006.4,-999.00,-999.0,yes,no,no,300025060001860,IMB,AWI-USIABP,unknown,South
2017-06-10T01:00:28Z,1497056429,2017,1,0,161.042,161.042,-70.58242,-7.94444,1006.5,-999.00,-999.0,yes,no,no,300025060001860,IMB,AWI-USIABP,unknown,South
2017-06-10T01:59:31Z,1497059971,2017,2,0,161.083,161.083,-70.58243,-7.94443,1007.0,-999.00,-999.0,yes,no,no,300025060001860,IMB,AWI-USIABP,unknown,South
2017-06-10T03:00:00Z,1497063600,2017,3,0,161.125,161.125,-70.58241,-7.94441,1006.9,-999.00,-999.0,yes,no,no,300025060001860,IMB,AWI-USIABP,unknown,South
2017-06-10T04:00:28Z,1497067229,2017,4,0,161.167,161.167,-70.58237,-7.94449,1006.7,-999.00,-999.0,yes,no,no,300025060001860,IMB,AWI-USIABP,unknown,South
2017-06-10T04:59:31Z,1497070771,2017,5,0,161.208,161.208,-70.58259,-7.94525,1006.8,-999.00,-999.0,yes,no,no,300025060001860,IMB,AWI-USIABP,unknown,South
2017-06-10T06:00:00Z,1497074400,2017,6,0,161.25,161.25,-70.58243,-7.9444,1006.5,-999.00,-999.0,yes,no,no,300025060001860,IMB,AWI-USIABP,unknown,South
2017-06-10T07:00:28Z,1497078029,2017,7,0,161.292,161.292,-70.58241,-7.94445,1006.6,-999.00,-999.0,yes,no,no,300025060001860,IMB,AWI-USIABP,unknown,South
2017-06-10T07:59:31Z,1497081571,2017,8,0,161.333,161.333,-70.58242,-7.94444,1006.6,-999.00,-999.0,yes,no,no,300025060001860,IMB,AWI-USIABP,unknown,South
2017-06-10T09:00:00Z,1497085200,2017,9,0,161.375,161.375,-70.58237,-7.94435,1006.7,-999.00,-999.0,yes,no,no,300025060001860,IMB,AWI-USIABP,unknown,South
2017-06-10T10:00:28Z,1497088829,2017,10,0,161.417,161.417,-70.58243,-7.94446,1006.8,-999.00,-999.0,yes,no,no,300025060001860,IMB,AWI-USIABP,unknown,South
2017-06-10T10:59:31Z,1497092371,2017,11,0,161.458,161.458,-70.58247,-7.94444,1006.6,-999.00,-999.0,yes,no,no,300025060001860,IMB,AWI-USIABP,unknown,South
2017-06-10T12:00:00Z,1497096000,2017,12,0,161.5,161.5,-70.58242,-7.94445,1007.0,-999.00,-999.0,yes,no,no,300025060001860,IMB,AWI-USIABP,unknown,South
2017-06-10T13:00:28Z,1497099629,2017,13,0,161.542,161.542,-70.58244,-7.94446,1007.3,-999.00,-999.0,yes,no,no,300025060001860,IMB,AWI-USIABP,unknown,South
2017-06-10T13:59:31Z,1497103171,2017,14,0,161.583,161.583,-70.58235,-7.94459,1007.3,-999.00,-999.0,yes,no,no,300025060001860,IMB,AWI-USIABP,unknown,South
2017-06-10T15:00:00Z,1497106800,2017,15,0,161.625,161.625,-70.58241,-7.94446,1007.0,-999.00,-999.0,yes,no,no,300025060001860,IMB,AWI-USIABP,unknown,South
2017-06-10T16:00:28Z,1497110429,2017,16,0,161.667,161.667,-70.58236,-7.94433,1007.0,-999.00,-999.0,yes,no,no,300025060001860,IMB,AWI-USIABP,unknown,South
2017-06-10T16:59:31Z,1497113971,2017,17,0,161.708,161.708,-70.58243,-7.94442,1006.7,-999.00,-999.0,yes,no,no,300025060001860,IMB,AWI-USIABP,unknown,South
2017-06-10T18:00:00Z,1497117600,2017,18,0,161.75,161.75,-70.58254,-7.94454,1007.0,-999.00,-999.0,yes,no,no,300025060001860,IMB,AWI-USIABP,unknown,South
2017-06-10T19:00:28Z,1497121229,2017,19,0,161.792,161.792,-70.58243,-7.94441,1007.2,-999.00,-999.0,yes,no,no,300025060001860,IMB,AWI-USIABP,unknown,South
2017-06-10T19:59:31Z,1497124771,2017,20,0,161.833,161.833,-70.58241,-7.94445,1007.3,-999.00,-999.0,yes,no,no,300025060001860,IMB,AWI-USIABP,unknown,South
2017-06-10T21:00:00Z,1497128400,2017,21,0,161.875,161.875,-70.58242,-7.94439,1007.4,-999.00,-999.0,yes,no,no,300025060001860,IMB,AWI-USIABP,unknown,South
2017-06-10T22:00:28Z,1497132029,2017,22,0,161.917,161.917,-70.58241,-7.94438,1007.5,-999.00,-999.0,yes,no,no,300025060001860,IMB,AWI-USIABP,unknown,South
2017-06-10T22:59:31Z,1497135571,2017,23,0,161.958,161.958,-70.58237,-7.94409,1007.8,-999.00,-999.0,yes,no,no,300025060001860,IMB,AWI-USIABP,unknown,South
2017-06-11T00:00:00Z,1497139200,2017,0,0,162.0,162.0,-70.58243,-7.94433,1008.1,-999.00,-999.0,yes,no,no,300025060001860,IMB,AWI-USIABP,unknown,South
2017-06-11T01:00:28Z,1497142829,2017,1,0,162.042,162.042,-70.58242,-7.94445,1008.1,-999.00,-999.0,yes,no,no,300025060001860,IMB,AWI-USIABP,unknown,South
2017-06-11T01:59:31Z,1497146371,2017,2,0,162.083,162.083,-70.58244,-7.94441,1008.3,-999.00,-999.0,yes,no,no,300025060001860,IMB,AWI-USIABP,unknown,South
2017-06-11T03:00:00Z,1497150000,2017,3,0,162.125,162.125,-70.58248,-7.9442,1008.0,-999.00,-999.0,yes,no,no,300025060001860,IMB,AWI-USIABP,unknown,South
2017-06-11T04:00:28Z,1497153629,2017,4,0,162.167,162.167,-70.58243,-7.9444,1007.7,-999.00,-999.0,yes,no,no,300025060001860,IMB,AWI-USIABP,unknown,South
2017-06-11T04:59:31Z,1497157171,2017,5,0,162.208,162.208,-70.58244,-7.94443,1007.5,-999.00,-999.0,yes,no,no,300025060001860,IMB,AWI-USIABP,unknown,South
2017-06-11T06:00:00Z,1497160800,2017,6,0,162.25,162.25,-70.58237,-7.9453,1007.4,-999.00,-999.0,yes,no,no,300025060001860,IMB,AWI-USIABP,unknown,South
2017-06-11T07:00:28Z,1497164429,2017,7,0,162.292,162.292,-70.5824,-7.94444,1007.1,-999.00,-999.0,yes,no,no,300025060001860,IMB,AWI-USIABP,unknown,South
2017-06-11T07:59:31Z,1497167971,2017,8,0,162.333,162.333,-70.58244,-7.94445,1007.3,-999.00,-999.0,yes,no,no,300025060001860,IMB,AWI-USIABP,unknown,South
2017-06-11T09:00:00Z,1497171600,2017,9,0,162.375,162.375,-70.58254,-7.94564,1007.3,-999.00,-999.0,yes,no,no,300025060001860,IMB,AWI-USIABP,unknown,South
2017-06-11T10:00:28Z,1497175229,2017,10,0,162.417,162.417,-70.5824,-7.94407,1006.8,-999.00,-999.0,yes,no,no,300025060001860,IMB,AWI-USIABP,unknown,South
2017-06-11T10:59:31Z,1497178771,2017,11,0,162.458,162.458,-70.58243,-7.94447,1006.5,-999.00,-999.0,yes,no,no,300025060001860,IMB,AWI-USIABP,unknown,South
2017-06-11T12:00:00Z,1497182400,2017,12,0,162.5,162.5,-70.58201,-7.94419,1006.6,-999.00,-999.0,yes,no,no,300025060001860,IMB,AWI-USIABP,unknown,South
2017-06-11T13:00:28Z,1497186029,2017,13,0,162.542,162.542,-70.58243,-7.94451,1006.3,-999.00,-999.0,yes,no,no,300025060001860,IMB,AWI-USIABP,unknown,South
2017-06-11T13:59:31Z,1497189571,2017,14,0,162.583,162.583,-70.58235,-7.94448,1006.0,-999.00,-999.0,yes,no,no,300025060001860,IMB,AWI-USIABP,unknown,South
2017-06-11T15:00:00Z,1497193200,2017,15,0,162.625,162.625,-70.58244,-7.94444,1005.5,-999.00,-999.0,yes,no,no,300025060001860,IMB,AWI-USIABP,unknown,South
2017-06-11T16:00:28Z,1497196829,2017,16,0,162.667,162.667,-70.58241,-7.94442,1004.7,-999.00,-999.0,yes,no,no,300025060001860,IMB,AWI-USIABP,unknown,South
2017-06-11T16:59:31Z,1497200371,2017,17,0,162.708,162.708,-70.58242,-7.94439,1004.0,-999.00,-999.0,yes,no,no,300025060001860,IMB,AWI-USIABP,unknown,South
2017-06-11T18:00:00Z,1497204000,2017,18,0,162.75,162.75,-70.58272,-7.94398,1003.3,-999.00,-999.0,yes,no,no,300025060001860,IMB,AWI-USIABP,unknown,South
2017-06-11T19:00:28Z,1497207629,2017,19,0,162.792,162.792,-70.58243,-7.94444,1002.8,-999.00,-999.0,yes,no,no,300025060001860,IMB,AWI-USIABP,unknown,South
2017-06-11T19:59:31Z,1497211171,2017,20,0,162.833,162.833,-70.58243,-7.94438,1002.2,-999.00,-999.0,yes,no,no,300025060001860,IMB,AWI-USIABP,unknown,South
2017-06-11T21:00:00Z,1497214800,2017,21,0,162.875,162.875,-70.58242,-7.9444,1001.8,-999.00,-999.0,yes,no,no,300025060001860,IMB,AWI-USIABP,unknown,South
2017-06-11T22:00:28Z,1497218429,2017,22,0,162.917,162.917,-70.58236,-7.94467,1001.5,-999.00,-999.0,yes,no,no,300025060001860,IMB,AWI-USIABP,unknown,South
2017-06-11T22:59:31Z,1497221971,2017,23,0,162.958,162.958,-70.58239,-7.94444,1000.5,-999.00,-999.0,yes,no,no,300025060001860,IMB,AWI-USIABP,unknown,South
2017-06-12T00:00:00Z,1497225600,2017,0,0,163.0,163.0,-70.58242,-7.94442,1000.0,-999.00,-999.0,yes,no,no,300025060001860,IMB,AWI-USIABP,unknown,South